Regional Weather Roundup
Issued by NWS

Home | Current Version | Previous Version | Text Only | Print | Product List | Glossary On
Versions: 1 2 3 4 5 6 7 8 9 10 11 12 13 14 15 16 17 18 19 20 21 22 23 24 25 26 27 28 29 30 31 32 33 34 35 36 37 38 39 40 41 42 43 44 45 46 47 48 49 50
000
ASUS43 KDTX 020410
RWRMI
MICHIGAN HOURLY REGIONAL WEATHER ROUNDUP
NATIONAL WEATHER SERVICE DETROIT/PONTIAC MI
1200 AM EDT TUE SEP 02 2014

NOTE: "FAIR" INDICATES FEW OR NO CLOUDS BELOW 12,000 FEET WITH NO
SIGNIFICANT WEATHER AND/OR OBSTRUCTION TO VISIBILITY.

MIZ047>049-052>055-059>063-066>070-074>076-081>083-020500-
SOUTHEAST LOWER MICHIGAN

CITY           SKY/WX    TMP DP  RH WIND       PRES   REMARKS
ADRIAN         CLEAR     71  69  93 SW5       29.87R
ALMA           MOCLDY    68  66  93 CALM      29.81R
BAD AXE        CLEAR     70  70 100 SW6       29.79R
CARO           PTCLDY    69  68  98 SW5       29.80R FOG
DETROIT CITY   MOCLDY    76  70  82 NW3       29.85R
DETROIT        MOCLDY    73  70  90 S7        29.85R
FLINT          CLEAR     72  67  84 SW3       29.83R
GROSSE ILE     PTCLDY    73  70  88 CALM      29.84S
HILLSDALE      CLEAR     72  69  90 SW3       29.88S
HOWELL         CLEAR     70  68  95 S5        29.84R

CITY           SKY/WX    TMP DP  RH WIND       PRES   REMARKS
JACKSON        CLEAR     72  67  84 SW6       29.86R
LAMBERTVILLE   CLEAR     77  68  73 SW12G17   29.87S
LANSING        PTCLDY    70  65  84 SW9       29.83R
LAPEER         FAIR      70  67  91 SW5       29.83R
MASON          CLEAR     70  66  86 CALM      29.85R
MONROE         CLEAR     75  70  83 SW8       29.84R
MT. CLEMENS    PTCLDY    72  72 100 SW7       29.83S
PONTIAC        MOCLDY    71  68  90 SW3       29.84R
PORT HOPE        N/A     71  67  87 VRB5      29.76R
PORT HURON     PTCLDY    68  68 100 CALM      29.84R FOG
TRI CITIES     PTCLDY    72  67  84 SW7       29.80R
TROY           MOCLDY    73  69  87 SW6       29.86R
SAGINAW HB     PTCLDY    72  72 100 SW6       29.79S
$$
MIZ043>046-050>051-056>058-064>065-071>073-077>080-020500-
SOUTHWEST LOWER MICHIGAN

CITY           SKY/WX    TMP DP  RH WIND       PRES   REMARKS
BATTLE CREEK   CLEAR     72  65  78 SW12      29.85S
BENTON HARBOR  PTCLDY    74  66  76 SW14      29.84R
BIG RAPIDS     CLEAR     65  65 100 CALM      29.79S
COLDWATER      CLEAR     71  68  89 SW5       29.86S
FREMONT        FAIR      65  65  97 SW3       29.80R
HOLLAND        CLOUDY    73  68  84 SW8       29.82R
GRAND RAPIDS   MOCLDY    72  69  90 SW8       29.82R
IONIA          FAIR      71  65  82 SW8       29.81S
KALAMAZOO      CLEAR     71  65  81 SW7       29.84S
LUDINGTON      CLEAR     69  67  90 W5        29.79R
MARSHALL       CLEAR     67  66  95 SW3       29.85S
MOUNT PLEASANT PTCLDY    69  66  90 SW5       29.79S
MUSKEGON       CLEAR     71  66  84 W8        29.80S
SOUTH HAVEN    PTCLDY    75  68  78 SW13G20   29.83R
$$
MIZ016>042-020500-
NORTHERN LOWER MICHIGAN

CITY           SKY/WX    TMP DP  RH WIND       PRES   REMARKS
ALPENA         PTCLDY    67  65  93 SW6       29.74S
BEAVER ISLAND  MOCLDY    63  62  96 CALM      29.75R
BELLAIRE       PTCLDY    67  64  90 CALM      29.75S
CADILLAC       CLEAR     64  64 100 W3        29.79S
CHARLEVOIX     MOCLDY    68  65  93 W8        29.78R
FRANKFORT      PTCLDY    69  64  83 NW3       29.76R
GAYLORD        CLEAR     65  63  93 W7        29.77S
GRAYLING       CLEAR     67  67 100 CALM      29.78S
HARBOR SPRINGS MOCLDY    68  64  88 W9        29.74S
HOUGHTON LAKE  CLEAR     68  64  87 W5        29.79R
MANISTEE       CLEAR     68  63  83 W7        29.78R
OSCODA         PTCLDY    67  67  99 W5        29.75R
PELLSTON       PTCLDY    67  64  90 W7        29.74R
ROGERS CITY    PTCLDY    66  64  94 W7        29.73F
TRAVERSE CITY  CLEAR     68  64  87 SW3       29.74S
$$
MIZ007>008-015-020500-
EASTERN UPPER MICHIGAN

CITY           SKY/WX    TMP DP  RH WIND       PRES   REMARKS
KINROSS        MOCLDY    64  63  94 W3        29.72S
MACKINAC ISLAN MOCLDY    64  63  99 W3        29.74R
NEWBERRY       CLEAR     57  57  99 SW5       29.73R
S. S. MARIE    CLEAR     60  58  92 SW3       29.71R
MUNISING         N/A     62  57  83 S7        29.71R
$$
MIZ004>006-011>014-085-020500-
CENTRAL UPPER MICHIGAN

CITY           SKY/WX    TMP DP  RH WIND       PRES   REMARKS
MANISTIQUE     CLEAR     60  59  97 W3        29.73S
ESCANABA       CLEAR     59  55  88 W3        29.74R
MENOMINEE      CLEAR     63  57  82 W3        29.75R
SAWYER-GWINN   CLEAR     59  55  87 W3        29.74R
$$
MIZ001>003-009>011-084-020500-
WESTERN UPPER MICHIGAN

CITY           SKY/WX    TMP DP  RH WIND       PRES   REMARKS
IRON MOUNTAIN  FOG       57  55  93 CALM      29.75R VSB 1
HOUGHTON       CLEAR     61  54  77 W10       29.70R
COPPER HARBOR    N/A     64  55  72 NW8       29.67R
$$

ABBREVIATIONS USED IN REMARKS
   TC - TEMPERATURE IN CELSIUS
  WCI - WIND CHILL INDEX
   HX - HEAT INDEX
  VSB - VISIBILITY




USA.gov is the U.S. government's official web portal to all federal, state and local government web resources and services.